This demonstration page uses our WeatherBlox Daily Observations layout. Learn more.

Left ArrowRight Arrow

31.31129, -92.44514

Hourly Observations for November 30, 2022

Temp ( °F °C ) Dew Point ( °F °C ) Humidity (%) Winds ( mph kmh ) Pressure ( in mb ) Visibility ( mi km ) Precip ( " mm )
12:00 am 00:00 Mostly Cloudy 76 24.4 69 20.6 79 79 W 13 20 29.88 1012 8 13 0.00 0.00
12:40 am 00:40 Mostly Clear 75 23.9 69 20.6 82 82 W 15 24 29.89 1012 7 11 0.00 0.00
12:53 am 00:53 Mostly Clear 74 23.3 69 20.6 85 85 W 14 22 29.90 1012 7 11 0.00 0.00
1:53 am 01:53 Hazy 73 22.8 68 20 84 84 W 9 15 29.91 1013 6 10 0.00 0.00
2:27 am 02:27 Mostly Cloudy with Mist and Fog 73 22.8 69 20.6 87 87 W 9 15 29.91 1013 6 10 0.00 0.00
2:53 am 02:53 Cloudy with Mist and Fog 72 22.2 69 20.6 91 91 WNW 9 15 29.93 1014 5 8 0.00 0.00
3:36 am 03:36 Cloudy with Mist and Fog 71 21.7 68 20 90 90 WNW 9 15 29.95 1014 5 8 0.00 0.00
3:53 am 03:53 Cloudy with Haze 71 21.7 66 18.9 84 84 NW 23 37 29.96 1015 6 10 0.00 0.00
4:53 am 04:53 Cloudy 62 16.7 54 12.2 75 75 NNW 16 26 30.03 1017 10 16 0.00 0.00
5:53 am 05:53 Mostly Clear 58 14.4 52 11.1 81 81 N 15 24 30.10 1019 10 16 0.00 0.00
6:53 am 06:53 Sunny 56 13.3 38 3.3 51 51 N 17 28 30.16 1022 10 16 0.00 0.00
7:53 am 07:53 Sunny 53 11.7 38 3.3 56 56 N 15 24 30.22 1024 10 16 0.00 0.00
8:53 am 08:53 Sunny 52 11.1 37 2.8 57 57 N 18 30 30.28 1025 10 16 0.00 0.00
9:53 am 09:53 Sunny 54 12.2 37 2.8 53 53 NNE 14 22 30.32 1027 10 16 0.00 0.00
10:53 am 10:53 Sunny 57 13.9 34 1.1 42 42 NE 13 20 30.33 1027 10 16 0.00 0.00
11:53 am 11:53 Sunny 59 15 32 0 36 36 NE 16 26 30.33 1027 10 16 0.00 0.00
12:53 pm 12:53 Sunny 58 14.4 29 -1.7 33 33 NE 13 20 30.32 1027 10 16 0.00 0.00
1:53 pm 13:53 Sunny 59 15 29 -1.7 32 32 NNE 13 20 30.32 1027 10 16 0.00 0.00
2:53 pm 14:53 Sunny 59 15 29 -1.7 32 32 N 12 19 30.33 1027 10 16 0.00 0.00
3:53 pm 15:53 Sunny 57 13.9 29 -1.7 34 34 NNE 9 15 30.34 1027 10 16 0.00 0.00
4:53 pm 16:53 Sunny 54 12.2 31 -0.6 41 41 NNE 8 13 30.35 1028 10 16 0.00 0.00
5:53 pm 17:53 Clear 50 10 33 0.6 52 52 NNE 6 9 30.37 1028 10 16 0.00 0.00
6:53 pm 18:53 Clear 47 8.3 33 0.6 58 58 N 7 11 30.40 1029 10 16 0.00 0.00
7:53 pm 19:53 Hazy 45 7.2 33 0.6 63 63 NNE 9 15 30.41 1030 4 6 0.00 0.00
8:53 pm 20:53 Clear 44 6.7 33 0.6 65 65 NNE 6 9 30.42 1030 10 16 0.00 0.00
9:53 pm 21:53 Clear 43 6.1 33 0.6 68 68 NE 7 11 30.42 1030 10 16 0.00 0.00
10:53 pm 22:53 Clear 43 6.1 32 0 65 65 NE 8 13 30.42 1030 10 16 0.00 0.00
11:53 pm 23:53 Clear 41 5 31 -0.6 67 67 NE 8 13 30.41 1030 10 16 0.00 0.00

Powered by AerisWeather